Location: San Pelegr�n
(42.1868°N, 0.0079°E)
Time: 18:06:07
(UTC+00:00)

Cosmos 2227 Rocket - Pass Details

Date: 24 January 2020
Orbit: 841 x 843 km, 71.0° (Epoch: 23 February)

Event Time Altitude Azimuth Distance (km) Brightness Sun altitude
Rises 17:48:41 0° 199° (SSW) 3,382 5.9 -8.6°
Reaches altitude 10° 17:51:07 10° 199° (SSW) 2,451 5.2 -9.0°
Maximum altitude 17:56:45 82° 113° (ESE) 854 2.2 -10.0°
Drops below altitude 10° 18:02:25 10° 26° (NNE) 2,466 4.2 -11.0°
Enters shadow 18:04:27 - 26° (NNE) 3,243 4.8 -11.4°
